This demonstration page uses our WeatherBlox Daily Observations layout. Learn more.

Left ArrowRight Arrow

Hourly Observations for June 6, 2021

Temp ( °F °C ) Dew Point ( °F °C ) Humidity (%) Winds ( mph kmh ) Pressure ( in mb ) Visibility ( mi km ) Precip ( " mm )
12:56 am 00:56 Clear 69 20.6 57 13.9 66 66 S 13 20 29.73 1007 10 16 0.00 0.00
1:56 am 01:56 Clear 68 20 58 14.4 70 70 S 16 26 29.72 1007 10 16 0.00 0.00
2:56 am 02:56 Clear 67 19.4 60 15.6 79 79 S 16 26 29.72 1006 10 16 0.00 0.00
3:56 am 03:56 Clear 65 18.3 61 16.1 87 87 S 15 24 29.72 1007 10 16 0.00 0.00
4:56 am 04:56 Clear 64 17.8 61 16.1 90 90 S 15 24 29.72 1007 10 16 0.00 0.00
5:56 am 05:56 Clear 64 17.8 62 16.7 93 93 S 14 22 29.71 1006 10 16 0.00 0.00
6:56 am 06:56 Sunny 64 17.8 62 16.7 93 93 S 16 26 29.72 1006 10 16 0.00 0.00
7:56 am 07:56 Sunny 67 19.4 63 17.2 87 87 SSW 17 28 29.70 1006 10 16 0.00 0.00
8:56 am 08:56 Sunny 71 21.7 62 16.7 73 73 SSW 18 30 29.70 1006 10 16 0.00 0.00
9:56 am 09:56 Sunny 75 23.9 63 17.2 66 66 SSW 20 31 29.69 1006 10 16 0.00 0.00
10:56 am 10:56 Sunny 78 25.6 64 17.8 62 62 SSW 21 33 29.68 1005 10 16 0.00 0.00
11:56 am 11:56 Sunny 81 27.2 64 17.8 57 57 S 18 30 29.68 1005 10 16 0.00 0.00
12:56 pm 12:56 Sunny 83 28.3 64 17.8 53 53 S 16 26 29.69 1005 10 16 0.00 0.00
1:56 pm 13:56 Sunny 84 28.9 65 18.3 53 53 S 15 24 29.68 1005 10 16 0.00 0.00
2:56 pm 14:56 Mostly Sunny 85 29.4 65 18.3 51 51 S 20 31 29.68 1005 10 16 0.00 0.00
3:56 pm 15:56 Sunny 85 29.4 64 17.8 50 50 SSW 16 26 29.67 1005 10 16 0.00 0.00
4:56 pm 16:56 Sunny 85 29.4 64 17.8 50 50 SSW 16 26 29.67 1005 10 16 0.00 0.00
5:56 pm 17:56 Sunny 86 30 63 17.2 46 46 SSW 15 24 29.66 1005 10 16 0.00 0.00
6:56 pm 18:56 Sunny 84 28.9 64 17.8 51 51 S 14 22 29.67 1005 10 16 0.00 0.00
7:56 pm 19:56 Sunny 82 27.8 65 18.3 56 56 S 13 20 29.67 1005 10 16 0.00 0.00
8:56 pm 20:56 Sunny 79 26.1 64 17.8 60 60 SSE 13 20 29.69 1006 10 16 0.00 0.00
9:56 pm 21:56 Clear 76 24.4 64 17.8 67 67 SSE 13 20 29.73 1007 10 16 0.00 0.00
10:56 pm 22:56 Cloudy 75 23.9 62 16.7 64 64 SSE 14 22 29.75 1007 10 16 0.00 0.00
11:56 pm 23:56 Partly Cloudy 74 23.3 63 17.2 69 69 S 13 20 29.75 1007 10 16 0.00 0.00

Powered by AerisWeather